Location: Gro� Glienicke
(52.4675°N, 13.1079°E)
Time: 16:35:09
(UTC+00:00)

Cosmos 1371 Rocket - Pass Details

Date: 06 July 2020
Orbit: 753 x 790 km, 74.0° (Epoch: 13 August)

Event Time Altitude Azimuth Distance (km) Brightness Sun altitude
Rises 21:57:39 0° 332° (NNW) 3,244 9.1 -13.2°
Reaches altitude 10° 22:00:02 10° 329° (NNW) 2,319 7.8 -13.3°
Maximum altitude 22:05:14 63° 250° (WSW) 866 4.2 -13.5°
Enters shadow 22:08:52 20° 174° (S) 1,742 5.2 -13.7°
